Weather History for KBLF - June, 2013

Change the Weather History Date:

Tuesday, June 11, 2013

  Actual Average Record
Temperature  
Mean Temperature 70 °F 69 °F  
Max Temperature 76 °F 78 °F 85 °F (2011)
Min Temperature 63 °F 60 °F 37 °F (1972)
Degree Days  
Heating Degree Days 0 1  
Month to date heating degree days 0 16  
Since 1 June heating degree days 0 16  
Since 1 July heating degree days 4686 4582  
Cooling Degree Days 5 5  
Month to date cooling degree days 58 45  
Year to date cooling degree days 172 136  
Since 1 June cooling degree days 58 45  
Growing Degree Days 19 (Base 50)    
Moisture  
Dew Point 59 °F    
Average Humidity 73    
Maximum Humidity 87    
Minimum Humidity 58    
Precipitation  
Precipitation 0.26 in 0.14 in 0.81 in (2006)
Month to date precipitation 2.00 1.58  
Year to date precipitation 20.53 18.40  
Snow  
Snow 0.00 in - - ()
Month to date snowfall 0.0  
Since 1 June snowfall 0.0  
Since 1 July snowfall 56.0  
Snow Depth 0.00 in    
Sea Level Pressure  
Sea Level Pressure 29.98 in    
Wind  
Wind Speed 9 mph (West)    
Max Wind Speed 16 mph    
Max Gust Speed 23 mph    
Visibility 9 miles    
Events Rain    
T = Trace of Precipitation, MM = Missing Value Source: NWS Daily Summary

Daily Weather History Graph

Daily Weather History Graph

Search for Another Location

Airport or City:

Trip Planner

Search our weather history database for the weather conditions in past years. The results will help you decide how hot, cold, wet, or windy it might be!

Date:

Astronomy

Jun. 11, 2013 Rise Set
Actual Time 6:03 AM EDT 8:45 PM EDT
Civil Twilight 5:32 AM EDT 9:16 PM EDT
Nautical Twilight 4:54 AM EDT 9:54 PM EDT
Astronomical Twilight 4:11 AM EDT 10:38 PM EDT
Moon 8:43 AM EDT (6/11) 10:50 PM EDT (6/11)
Length of Visible Light 15h 43m
Length of Day
14h 41m
Waxing Crescent, 8% of the Moon is Illuminated
Jun 11
Waxing Crescent
Jun 16
First Quarter
Jun 23
Full
Jun 30
Last Quarter
Jul 8
New

Hourly Weather History & Observations

Time (EDT) Temp. Dew Point Humidity Pressure Visibility Wind Dir Wind Speed Gust Speed Precip Events Conditions
12:52 AM 64.9 °F 60.1 °F 84% 29.89 in 5.0 mi West 3.5 mph - 0.09 in Rain Rain
1:10 AM 64.4 °F 60.8 °F 88% 30.00 in 3.0 mi West 4.6 mph - 0.07 in Rain Heavy Rain
1:18 AM 64.4 °F 60.8 °F 88% 29.99 in 1.8 mi SW 3.5 mph - 0.17 in Rain Heavy Rain
1:25 AM 64.4 °F 60.8 °F 88% 29.99 in 1.8 mi SSW 3.5 mph - 0.23 in Rain Heavy Rain
1:28 AM 64.4 °F 60.8 °F 88% 29.99 in 2.0 mi SW 3.5 mph - 0.24 in Rain Rain
1:30 AM 64.4 °F 60.8 °F 88% 29.99 in 3.0 mi SW 5.8 mph - 0.24 in Rain Rain
1:37 AM 64.4 °F 60.8 °F 88% 29.99 in 10.0 mi SW 3.5 mph - 0.24 in Rain Light Rain
1:47 AM 64.4 °F 60.8 °F 88% 29.99 in 10.0 mi SSW 3.5 mph - 0.24 in   Overcast
1:52 AM 64.0 °F 60.1 °F 87% 29.89 in 10.0 mi SW 4.6 mph - 0.24 in   Overcast
2:52 AM 64.0 °F 59.0 °F 84% 29.88 in 10.0 mi WSW 8.1 mph - N/A   Overcast
3:30 AM 64.4 °F 59.0 °F 83% 29.98 in 10.0 mi WSW 10.4 mph - N/A   Overcast
3:40 AM 64.4 °F 59.0 °F 83% 29.98 in 10.0 mi West 9.2 mph - N/A   Overcast
3:48 AM 64.4 °F 59.0 °F 83% 29.98 in 10.0 mi West 10.4 mph - N/A   Overcast
3:52 AM 63.0 °F 59.0 °F 87% 29.89 in 8.0 mi West 12.7 mph 17.3 mph 0.02 in Rain Light Rain
4:52 AM 63.0 °F 57.9 °F 84% 29.90 in 10.0 mi West 12.7 mph 19.6 mph 0.02 in   Overcast
5:52 AM 63.0 °F 57.9 °F 84% 29.91 in 10.0 mi West 9.2 mph - N/A   Overcast
6:52 AM 63.0 °F 57.9 °F 84% 29.92 in 8.0 mi West 9.2 mph - N/A   Overcast
7:52 AM 63.0 °F 57.9 °F 84% 29.95 in 8.0 mi West 10.4 mph - 0.00 in   Overcast
8:52 AM 64.0 °F 57.9 °F 80% 29.97 in 10.0 mi West 9.2 mph 18.4 mph N/A   Overcast
9:31 AM 64.4 °F 57.2 °F 77% 30.07 in 10.0 mi West 6.9 mph - N/A   Overcast
9:52 AM 66.0 °F 57.9 °F 75% 29.98 in 10.0 mi WNW 9.2 mph - N/A   Overcast
10:52 AM 66.9 °F 59.0 °F 76% 29.98 in 10.0 mi West 11.5 mph 16.1 mph N/A   Overcast
11:40 AM 69.8 °F 59.0 °F 68% 30.07 in 10.0 mi WNW 11.5 mph - N/A   Overcast
11:52 AM 69.1 °F 57.9 °F 68% 29.97 in 10.0 mi West 10.4 mph 18.4 mph N/A   Overcast
12:52 PM 72.0 °F 57.9 °F 61% 29.97 in 10.0 mi NW 11.5 mph 19.6 mph N/A   Overcast
1:02 PM 71.6 °F 57.2 °F 60% 30.07 in 10.0 mi West 12.7 mph 17.3 mph N/A   Overcast
1:30 PM 73.4 °F 59.0 °F 61% 30.07 in 10.0 mi WNW 15.0 mph 19.6 mph N/A   Mostly Cloudy
1:37 PM 71.6 °F 57.2 °F 60% 30.08 in 10.0 mi NW 9.2 mph 21.9 mph N/A   Mostly Cloudy
1:52 PM 72.0 °F 57.9 °F 61% 29.98 in 10.0 mi NW 10.4 mph 19.6 mph N/A   Overcast
2:52 PM 72.0 °F 57.9 °F 61% 29.99 in 10.0 mi West 10.4 mph 19.6 mph N/A   Overcast
3:01 PM 73.4 °F 59.0 °F 61% 30.08 in 10.0 mi WNW 11.5 mph 19.6 mph N/A   Overcast
3:52 PM 75.0 °F 59.0 °F 57% 29.97 in 10.0 mi NW 13.8 mph 20.7 mph N/A   Scattered Clouds
4:52 PM 75.0 °F 60.1 °F 60% 29.96 in 10.0 mi Variable 6.9 mph 17.3 mph N/A   Scattered Clouds
5:52 PM 75.9 °F 60.1 °F 58% 29.96 in 10.0 mi WNW 13.8 mph 17.3 mph N/A   Mostly Cloudy
6:52 PM 73.9 °F 60.1 °F 62% 29.96 in 10.0 mi West 10.4 mph - N/A   Partly Cloudy
7:52 PM 73.0 °F 61.0 °F 66% 29.96 in 10.0 mi West 8.1 mph - N/A   Clear
8:52 PM 70.0 °F 60.1 °F 71% 29.98 in 10.0 mi West 5.8 mph - N/A   Clear
9:52 PM 69.1 °F 60.1 °F 73% 30.00 in 10.0 mi West 4.6 mph - N/A   Clear
10:52 PM 68.0 °F 60.1 °F 76% 30.00 in 10.0 mi West 8.1 mph - N/A   Clear
11:52 PM 66.9 °F 60.1 °F 79% 29.99 in 10.0 mi West 6.9 mph - N/A   Clear